Regional Weather Roundup
Issued by NWS Little Rock, AR

Home | Current Version | Previous Version | Graphics & Text | Print | Product List | Glossary On
Versions: 1 2 3 4 5 6 7 8 9 10 11 12 13 14 15 16 17 18 19 20 21 22 23 24 25 26 27 28 29 30 31
000
ASUS44 KLZK 171005
RWRLZK

WEATHER ROUNDUP FOR ARKANSAS
NATIONAL WEATHER SERVICE LITTLE ROCK AR
500 AM CDT TUE OCT 17 2017

NOTE: "FAIR" INDICATES FEW OR NO CLOUDS BELOW 12,000 FEET WITH NO
SIGNIFICANT WEATHER AND/OR OBSTRUCTIONS TO VISIBILITY.

ARZ001-003-010-029-171100-
NORTHWEST ARKANSAS

CITY           SKY/WX    TMP DP  RH WIND       PRES   REMARKS
FAYETTEVILLE   CLOUDY    39  39 100 CALM      30.31S
FORT SMITH     CLEAR     47  46  97 NE5       30.30S
HARRISON       CLEAR     40  38  93 SE3       30.31R
BENTONVILLE    CLOUDY    43  40  89 SE5       30.31F
ROGERS         CLOUDY    45  42  89 SE7       30.30S
SILOAM SPGS    PTCLDY    42  40  92 CALM      30.29F
HIGHFILL       PTCLDY    42  40  92 CALM      30.30S
$$

ARZ004-005-016-171100-
NORTH CENTRAL ARKANSAS

CITY           SKY/WX    TMP DP  RH WIND       PRES   REMARKS
BATESVILLE     CLEAR     40  40 100 NW3       30.33R
FLIPPIN        CLEAR     38  36  92 CALM      30.33R
MTN HOME       CLEAR     40  40 100 CALM      30.31R
$$

ARZ040-041-171100-
WEST CENTRAL ARKANSAS

CITY           SKY/WX    TMP DP  RH WIND       PRES   REMARKS
MENA           CLEAR     37  37 100 CALM      30.31S
$$

ARZ009-017-025-026-028-171100-
NORTHEAST ARKANSAS

CITY           SKY/WX    TMP DP  RH WIND       PRES   REMARKS
JONESBORO      CLEAR     43  40  89 NE3       30.32R
NEWPORT        CLEAR     41  40  96 NW7       30.33R
WALNUT RIDGE   CLEAR     40  39  97 NW6       30.34R
BLYTHEVILLE    CLEAR     43  41  93 E5        30.31S
$$

ARZ022-023-033-042-044-171100-
CENTRAL ARKANSAS

CITY           SKY/WX    TMP DP  RH WIND       PRES   REMARKS
LITTLE ROCK    CLEAR     45  44  97 CALM      30.32R
N LITTLE ROCK    N/A     48  40  73 CALM      30.34R
JACKSONVILLE   CLEAR     39  37  93 CALM      30.31R
SEARCY         CLEAR     41  41 100 CALM      30.33R
HOT SPRINGS    CLOUDY    44  43  96 CALM      30.32R
RUSSELLVILLE   CLEAR     40  40 100 CALM      30.32R
CLINTON        FAIR      37  37 100 CALM      30.34R FOG
$$

ARZ036-171100-
EAST ARKANSAS

CITY           SKY/WX    TMP DP  RH WIND       PRES   REMARKS
WEST MEMPHIS   CLEAR     43  43 100 CALM      30.29S
$$

ARZ050-053-066-070-073-171100-
SOUTHWEST ARKANSAS

CITY           SKY/WX    TMP DP  RH WIND       PRES   REMARKS
ARKADELPHIA    FOG       36  36 100 CALM      30.32S VSB 1/2
CAMDEN         DRIZZLE   36  34  93 CALM      30.30S
TEXARKANA      CLEAR     42  41  96 NE3       30.30S
EL DORADO      CLEAR     43  40  89 N3        30.30R
$$

ARZ056-057-069-171100-
SOUTHEAST ARKANSAS

CITY           SKY/WX    TMP DP  RH WIND       PRES   REMARKS
PINE BLUFF     CLEAR     42  37  82 CALM      30.31R
STUTTGART      CLEAR     42  39  89 N3        30.32
MONTICELLO     CLEAR     46  40  79 NE5       30.30R

$$






USA.gov is the U.S. government's official web portal to all federal, state and local government web resources and services.